sat.trackr.live / text

‹ back to catalog

STARLINK-35790

NORAD 67055 · 2025-294AB

PAYLOAD ACTIVE UNKNOWN

§ Identity

Operator
Country
US
Launch date
2025-12-11
Launch site
AFETR
Launch vehicle
Mass (kg)
RCS (m²)

Purposes: comms

External: N2YO · Heavens-Above · Gunter

§ Orbital elements

Epoch: 2026-09-20T09:17:39.289056Z

Period
94.27 min
Inclination
43.0017°
Eccentricity
0.0001908
Mean motion
15.27581871 rev/d
Perigee alt
481.7 km
Apogee alt
484.4 km
Semi-major
6,861.2 km
B*
2.6832e-4
RAAN
18.6952°
Arg perigee
271.0708°
Mean anomaly
88.9925°
Rev number
4,457

§ Raw data

STARLINK-357901 67055U 25294AB  26263.38726029  .00007129  00000+0  26832-3 0  99932 67055  43.0017  18.6952 0001908 271.0708  88.9925 15.27581871 44570

JSON: /api/v1/satellites/67055 · /tle

For live sub-satellite position, see the globe view (requires WebGL).

§ Visibility from observer

Set your observer location to see the next 7 days of passes ≥ 10°. The values pass through the URL so the page stays shareable.

No JS? Fill the form by hand. The geolocation button needs JavaScript.